Terminal Aerodrome Forecast
Issued by NWS Charleston, WV

Home | Current Version | Previous Version | Text Only | Print | Product List | Glossary On
Versions: 1 2 3 4 5 6 7 8 9 10 11 12 13 14 15 16 17 18 19 20 21
570
FTUS41 KRLX 180221 AAA
TAFBKW
TAF AMD
KBKW 180221Z 1802/1824 20004KT P6SM SKC
     FM180800 23004KT P6SM BKN035
     FM181400 25005KT P6SM VCTS BKN015CB
     FM181600 25006KT P6SM VCTS BKN020CB
     FM181900 26006KT P6SM SCT025
     FM182100 27006KT P6SM SCT035=

USA.gov is the U.S. government's official web portal to all federal, state and local government web resources and services.